Wrangell, AK

12:49 AM AKDT on April 28, 2017 (GMT -0800)
Wrangell

Weather History for PAWG - March, 2014

Change the Weather History Date:

Friday, March 21, 2014

  Actual Average Record
Temperature  
Mean Temperature 38 °F -  
Max Temperature 42 °F 45 °F 57 °F (1998)
Min Temperature 33 °F 32 °F 15 °F (2001)
Degree Days  
Heating Degree Days 28    
Moisture  
Dew Point 26 °F    
Average Humidity 63    
Maximum Humidity 87    
Minimum Humidity 45    
Precipitation  
Precipitation 0.00 in - - ()
Sea Level Pressure  
Sea Level Pressure 30.30 in    
Wind  
Wind Speed 7 mph (ESE)    
Max Wind Speed 15 mph    
Max Gust Speed 20 mph    
Visibility 10 miles    
Events      
Averages and records for this station are not official NWS values.
T = Trace of Precipitation, MM = Missing Value Source: NWS Daily Summary

Daily Weather History Graph

Daily Weather History Graph

Search for Another Location

Airport or City:

Trip Planner

Search our weather history database for the weather conditions in past years. The results will help you decide how hot, cold, wet, or windy it might be!

Date:

Astronomy

Mar. 21, 2014 Rise Set
Actual Time 6:48 AM AKDT 7:05 PM AKDT
Civil Twilight 6:10 AM AKDT 7:43 PM AKDT
Nautical Twilight 5:25 AM AKDT 8:28 PM AKDT
Astronomical Twilight 4:38 AM AKDT 9:16 PM AKDT
Moon 12:21 AM AKDT (3/21) 8:53 AM AKDT (3/21)
Length of Visible Light 13h 32m
Length of Day
12h 17m
Waning Gibbous, 74% of the Moon is Illuminated
Mar 21
Waning Gibbous
Mar 23
Last Quarter
Mar 30
New
Apr 7
First Quarter
Apr 14
Full

Hourly Weather History & Observations

Time (AKDT) Temp. Windchill Dew Point Humidity Pressure Visibility Wind Dir Wind Speed Gust Speed Precip Events Conditions
12:16 AM 33.8 °F 28.6 °F 28.4 °F 81% 30.38 in 10.0 mi SSE 5.8 mph - N/A   Overcast
12:36 AM 33.8 °F 29.6 °F 30.2 °F 87% 30.38 in 10.0 mi SSE 4.6 mph - N/A   Overcast
12:56 AM 35.6 °F - 30.2 °F 81% 30.39 in 10.0 mi Calm Calm - N/A   Overcast
1:16 AM 35.6 °F 29.9 °F 30.2 °F 81% 30.38 in 10.0 mi ESE 6.9 mph - N/A   Overcast
1:36 AM 35.6 °F 29.9 °F 30.2 °F 81% 30.39 in 10.0 mi ESE 6.9 mph - N/A   Overcast
1:56 AM 35.6 °F 31.7 °F 30.2 °F 81% 30.39 in 10.0 mi SE 4.6 mph - N/A   Overcast
2:16 AM 35.6 °F 31.7 °F 30.2 °F 81% 30.38 in 10.0 mi SE 4.6 mph - N/A   Overcast
2:36 AM 33.8 °F 28.6 °F 30.2 °F 87% 30.38 in 10.0 mi ESE 5.8 mph - N/A   Mostly Cloudy
2:56 AM 33.8 °F 28.6 °F 28.4 °F 81% 30.38 in 10.0 mi SE 5.8 mph - N/A   Mostly Cloudy
3:16 AM 33.8 °F 28.6 °F 28.4 °F 81% 30.38 in 10.0 mi SSE 5.8 mph - N/A   Overcast
3:36 AM 33.8 °F 28.6 °F 28.4 °F 81% 30.38 in 10.0 mi SE 5.8 mph - N/A   Overcast
3:56 AM 33.8 °F 27.7 °F 28.4 °F 81% 30.37 in 10.0 mi SE 6.9 mph - N/A   Overcast
4:16 AM 33.8 °F 28.6 °F 28.4 °F 81% 30.37 in 10.0 mi SSE 5.8 mph - N/A   Overcast
4:36 AM 33.8 °F 28.6 °F 28.4 °F 81% 30.37 in 10.0 mi SSE 5.8 mph - N/A   Overcast
4:56 AM 33.8 °F 29.6 °F 28.4 °F 81% 30.37 in 10.0 mi ESE 4.6 mph - N/A   Overcast
5:16 AM 33.8 °F 27.0 °F 28.4 °F 81% 30.37 in 10.0 mi ESE 8.1 mph - N/A   Overcast
5:36 AM 35.6 °F 28.6 °F 30.2 °F 81% 30.37 in 10.0 mi ESE 9.2 mph - N/A   Overcast
5:56 AM 35.6 °F 29.2 °F 28.4 °F 75% 30.37 in 10.0 mi ESE 8.1 mph - N/A   Mostly Cloudy
6:16 AM 35.6 °F 28.0 °F 28.4 °F 75% 30.37 in 10.0 mi ESE 10.4 mph - N/A   Mostly Cloudy
6:36 AM 35.6 °F 28.6 °F 28.4 °F 75% 30.36 in 10.0 mi ESE 9.2 mph - N/A   Mostly Cloudy
6:56 AM 33.8 °F 27.7 °F 28.4 °F 81% 30.37 in 10.0 mi SE 6.9 mph - N/A   Mostly Cloudy
7:16 AM 33.8 °F 27.7 °F 28.4 °F 81% 30.37 in 10.0 mi SE 6.9 mph - N/A   Mostly Cloudy
7:36 AM 33.8 °F 28.6 °F 28.4 °F 81% 30.37 in 10.0 mi SE 5.8 mph - N/A   Mostly Cloudy
7:56 AM 33.8 °F 26.4 °F 28.4 °F 81% 30.37 in 10.0 mi SE 9.2 mph - N/A   Mostly Cloudy
8:16 AM 33.8 °F 27.7 °F 28.4 °F 81% 30.37 in 10.0 mi SE 6.9 mph - N/A   Mostly Cloudy
8:36 AM 35.6 °F 29.9 °F 28.4 °F 75% 30.36 in 10.0 mi ESE 6.9 mph - N/A   Mostly Cloudy
8:56 AM 35.6 °F 29.9 °F 28.4 °F 75% 30.36 in 10.0 mi SE 6.9 mph - N/A   Mostly Cloudy
9:16 AM 35.6 °F 30.7 °F 28.4 °F 75% 30.36 in 10.0 mi SE 5.8 mph - N/A   Mostly Cloudy
9:36 AM 37.4 °F 32.1 °F 28.4 °F 70% 30.35 in 10.0 mi ESE 6.9 mph - N/A   Mostly Cloudy
9:56 AM 37.4 °F 32.1 °F 28.4 °F 70% 30.35 in 10.0 mi SE 6.9 mph - N/A   Mostly Cloudy
10:16 AM 37.4 °F 32.8 °F 28.4 °F 70% 30.35 in 10.0 mi SE 5.8 mph - N/A   Mostly Cloudy
10:36 AM 37.4 °F 32.1 °F 28.4 °F 70% 30.35 in 10.0 mi SE 6.9 mph - N/A   Mostly Cloudy
10:56 AM 37.4 °F 32.1 °F 26.6 °F 65% 30.35 in 10.0 mi SE 6.9 mph - N/A   Mostly Cloudy
11:16 AM 39.2 °F 37.0 °F 28.4 °F 65% 30.34 in 10.0 mi East 3.5 mph - N/A   Mostly Cloudy
11:36 AM 41.0 °F 37.1 °F 26.6 °F 57% 30.34 in 10.0 mi ESE 5.8 mph - N/A   Mostly Cloudy
11:56 AM 41.0 °F 37.1 °F 26.6 °F 57% 30.33 in 10.0 mi ENE 5.8 mph - N/A   Scattered Clouds
12:16 PM 42.8 °F 37.5 °F 26.6 °F 53% 30.32 in 10.0 mi East 9.2 mph - N/A   Scattered Clouds
12:36 PM 42.8 °F 38.0 °F 24.8 °F 49% 30.32 in 10.0 mi East 8.1 mph - N/A   Scattered Clouds
12:56 PM 42.8 °F 37.5 °F 24.8 °F 49% 30.31 in 10.0 mi ESE 9.2 mph - N/A   Scattered Clouds
1:16 PM 42.8 °F 36.2 °F 24.8 °F 49% 30.30 in 10.0 mi East 12.7 mph - N/A   Scattered Clouds
1:36 PM 42.8 °F 36.6 °F 24.8 °F 49% 30.30 in 10.0 mi East 11.5 mph - N/A   Scattered Clouds
1:56 PM 42.8 °F 35.8 °F 24.8 °F 49% 30.29 in 10.0 mi East 13.8 mph 18.4 mph N/A   Scattered Clouds
2:16 PM 42.8 °F 36.2 °F 24.8 °F 49% 30.28 in 10.0 mi East 12.7 mph - N/A   Scattered Clouds
2:36 PM 42.8 °F 36.6 °F 24.8 °F 49% 30.28 in 10.0 mi East 11.5 mph - N/A   Scattered Clouds
2:56 PM 42.8 °F 37.5 °F 24.8 °F 49% 30.27 in 10.0 mi ESE 9.2 mph - N/A   Partly Cloudy
3:16 PM 42.8 °F 37.0 °F 24.8 °F 49% 30.27 in 10.0 mi East 10.4 mph - N/A   Partly Cloudy
3:36 PM 42.8 °F 38.0 °F 26.6 °F 53% 30.26 in 10.0 mi East 8.1 mph - N/A   Partly Cloudy
3:56 PM 41.0 °F 35.8 °F 24.8 °F 53% 30.26 in 10.0 mi ENE 8.1 mph - N/A   Mostly Cloudy
4:16 PM 41.0 °F 33.5 °F 24.8 °F 53% 30.25 in 10.0 mi ENE 13.8 mph - N/A   Mostly Cloudy
4:36 PM 41.0 °F 33.9 °F 23.0 °F 49% 30.24 in 10.0 mi ENE 12.7 mph 16.1 mph N/A   Mostly Cloudy
4:56 PM 39.2 °F 31.2 °F 23.0 °F 52% 30.24 in 10.0 mi ENE 13.8 mph - N/A   Clear
5:16 PM 39.2 °F 31.2 °F 23.0 °F 52% 30.23 in 10.0 mi ENE 13.8 mph - N/A   Mostly Cloudy
5:36 PM 39.2 °F 31.6 °F 23.0 °F 52% 30.22 in 10.0 mi ENE 12.7 mph - N/A   Mostly Cloudy
5:56 PM 39.2 °F 32.5 °F 23.0 °F 52% 30.22 in 10.0 mi East 10.4 mph - N/A   Scattered Clouds
6:16 PM 39.2 °F 30.8 °F 21.2 °F 49% 30.21 in 10.0 mi ENE 15.0 mph - N/A   Scattered Clouds
6:36 PM 39.2 °F 31.6 °F 21.2 °F 49% 30.20 in 10.0 mi ENE 12.7 mph 18.4 mph N/A   Scattered Clouds
6:56 PM 39.2 °F 31.2 °F 21.2 °F 49% 30.20 in 10.0 mi ENE 13.8 mph - N/A   Partly Cloudy
7:16 PM 39.2 °F 32.5 °F 21.2 °F 49% 30.20 in 10.0 mi East 10.4 mph - N/A   Partly Cloudy
7:36 PM 39.2 °F 31.2 °F 21.2 °F 49% 30.20 in 10.0 mi ENE 13.8 mph - N/A   Partly Cloudy
7:56 PM 39.2 °F 32.0 °F 19.4 °F 45% 30.20 in 10.0 mi East 11.5 mph - N/A   Clear
8:16 PM 39.2 °F 32.5 °F 21.2 °F 49% 30.19 in 10.0 mi ENE 10.4 mph 19.6 mph N/A   Clear
8:36 PM 39.2 °F 32.0 °F 21.2 °F 49% 30.19 in 10.0 mi East 11.5 mph - N/A   Clear
8:56 PM 39.2 °F 33.6 °F 19.4 °F 45% 30.19 in 10.0 mi ENE 8.1 mph - N/A   Clear
9:16 PM 37.4 °F 30.3 °F 21.2 °F 52% 30.19 in 10.0 mi East 10.4 mph - N/A   Clear
9:36 PM 37.4 °F 32.1 °F 21.2 °F 52% 30.19 in 10.0 mi SSE 6.9 mph - N/A   Clear
9:56 PM 37.4 °F 34.9 °F 21.2 °F 52% 30.19 in 10.0 mi ESE 3.5 mph - N/A   Clear
10:16 PM 37.4 °F 33.8 °F 21.2 °F 52% 30.19 in 10.0 mi SSE 4.6 mph - N/A   Clear
10:36 PM 37.4 °F 32.8 °F 21.2 °F 52% 30.19 in 10.0 mi SSE 5.8 mph - N/A   Clear
10:56 PM 37.4 °F 33.8 °F 21.2 °F 52% 30.18 in 10.0 mi SSE 4.6 mph - N/A   Clear
11:16 PM 37.4 °F 34.9 °F 19.4 °F 48% 30.18 in 10.0 mi South 3.5 mph - N/A   Scattered Clouds
11:36 PM 37.4 °F 34.9 °F 21.2 °F 52% 30.18 in 10.0 mi SE 3.5 mph - N/A   Clear
11:56 PM 37.4 °F 34.9 °F 19.4 °F 48% 30.18 in 10.0 mi South 3.5 mph - N/A   Clear